Location: ????????
(55.4000°N, 39.1167°E)
Time: 10:09:55
(UTC+00:00)

SL-16 R/B - Pass Details

Date: 19 May 2025
Orbit: 841 x 844 km, 71.0° (Epoch: 13 June)

Event Time Altitude Azimuth Distance (km) Brightness Sun altitude
Rises 20:58:08 0° 324° (NW) 3,416 6.4 -14.5°
Reaches altitude 10° 21:00:41 10° 318° (NW) 2,477 5.4 -14.5°
Maximum altitude 21:06:02 44° 248° (WSW) 1,155 2.8 -14.6°
Enters shadow 21:09:24 21° 188° (S) 1,796 3.3 -14.6°
